Weather History for KVLL - November, 2012

Change the Weather History Date:

Saturday, November 3, 2012

  Actual Average (KDET) Record (KDET)
Temperature  
Mean Temperature 38 °F -  
Max Temperature 43 °F 54 °F 74 °F (1987)
Min Temperature 32 °F 40 °F 16 °F (1951)
Degree Days  
Heating Degree Days 28    
Moisture  
Dew Point 28 °F    
Average Humidity 68    
Maximum Humidity 85    
Minimum Humidity 55    
Precipitation  
Precipitation 0.00 in - - ()
Sea Level Pressure  
Sea Level Pressure 30.16 in    
Wind  
Wind Speed 7 mph (NNW)    
Max Wind Speed 12 mph    
Max Gust Speed 20 mph    
Visibility 10 miles    
Events      
Averages and records for this station are not official NWS values.
T = Trace of Precipitation, MM = Missing Value Source: NWS Daily Summary

Daily Weather History Graph

Daily Weather History Graph

Search for Another Location

Airport or City:

Trip Planner

Search our weather history database for the weather conditions in past years. The results will help you decide how hot, cold, wet, or windy it might be!

Date:

Astronomy

Nov. 03, 2012 Rise Set
Actual Time 8:09 AM EDT 6:22 PM EDT
Civil Twilight 7:39 AM EDT 6:51 PM EDT
Nautical Twilight 7:06 AM EDT 7:25 PM EDT
Astronomical Twilight 6:33 AM EDT 7:58 PM EDT
Moon 10:00 PM EDT (11/3) 12:15 PM EDT (11/3)
Length of Visible Light 11h 11m
Length of Day
10h 13m
Waning Gibbous, 80% of the Moon is Illuminated
Nov 3
Waning Gibbous
Nov 6
Last Quarter
Nov 13
New
Nov 20
First Quarter
Nov 28
Full

Hourly Weather History & Observations

Time (EDT) Temp. Windchill Dew Point Humidity Pressure Visibility Wind Dir Wind Speed Gust Speed Precip Events Conditions
12:15 AM 39.2 °F 32.5 °F 26.4 °F 60% 30.08 in 10.0 mi North 10.4 mph - N/A   Overcast
12:34 AM 38.8 °F 33.8 °F 26.4 °F 61% 30.09 in 10.0 mi NNW 6.9 mph - N/A   Overcast
12:55 AM 38.7 °F 35.2 °F 26.6 °F 62% 30.09 in 10.0 mi North 4.6 mph - N/A   Overcast
1:15 AM 38.7 °F 35.2 °F 26.6 °F 62% 30.10 in 10.0 mi NNW 4.6 mph - N/A   Overcast
1:34 AM 38.7 °F 31.4 °F 26.4 °F 61% 30.10 in 10.0 mi WNW 11.5 mph 19.6 mph N/A   Mostly Cloudy
1:55 AM 38.3 °F 32.5 °F 26.6 °F 63% 30.10 in 10.0 mi NW 8.1 mph - N/A   Mostly Cloudy
2:14 AM 37.4 °F 31.4 °F 27.1 °F 66% 30.10 in 10.0 mi NW 8.1 mph - N/A   Scattered Clouds
2:34 AM 37.6 °F 32.3 °F 27.1 °F 66% 30.11 in 10.0 mi NW 6.9 mph - N/A   Mostly Cloudy
2:55 AM 37.8 °F 32.5 °F 27.5 °F 67% 30.11 in 10.0 mi NNW 6.9 mph - N/A   Overcast
3:14 AM 37.6 °F 31.6 °F 28.0 °F 68% 30.12 in 10.0 mi NW 8.1 mph - N/A   Overcast
3:35 AM 37.0 °F 31.0 °F 28.4 °F 71% 30.12 in 10.0 mi NW 8.1 mph - N/A   Overcast
3:54 AM 36.5 °F 29.7 °F 28.8 °F 74% 30.12 in 10.0 mi NW 9.2 mph - N/A   Overcast
4:14 AM 35.6 °F 29.2 °F 28.6 °F 76% 30.12 in 10.0 mi NW 8.1 mph - N/A   Scattered Clouds
4:35 AM 35.1 °F 28.6 °F 28.8 °F 78% 30.13 in 10.0 mi NW 8.1 mph - N/A   Scattered Clouds
4:54 AM 34.9 °F 28.3 °F 29.1 °F 79% 30.13 in 10.0 mi NW 8.1 mph - N/A   Overcast
5:15 AM 34.3 °F 27.7 °F 29.1 °F 81% 30.13 in 10.0 mi NW 8.1 mph - N/A   Overcast
5:34 AM 34.2 °F 27.5 °F 29.1 °F 82% 30.13 in 10.0 mi NW 8.1 mph - N/A   Overcast
5:54 AM 34.0 °F 26.6 °F 29.1 °F 82% 30.14 in 10.0 mi WNW 9.2 mph - N/A   Overcast
6:15 AM 33.8 °F 27.0 °F 28.9 °F 82% 30.14 in 10.0 mi NW 8.1 mph - N/A   Overcast
6:34 AM 33.3 °F 27.1 °F 28.9 °F 84% 30.15 in 10.0 mi NW 6.9 mph - N/A   Mostly Cloudy
6:55 AM 32.9 °F 25.9 °F 28.4 °F 84% 30.15 in 10.0 mi NW 8.1 mph - N/A   Scattered Clouds
7:15 AM 32.7 °F 26.4 °F 28.6 °F 85% 30.15 in 10.0 mi NW 6.9 mph - N/A   Clear
7:34 AM 32.5 °F 26.2 °F 28.4 °F 85% 30.15 in 10.0 mi NW 6.9 mph - N/A   Clear
7:55 AM 32.5 °F 25.5 °F 28.4 °F 85% 30.15 in 10.0 mi NW 8.1 mph - N/A   Clear
8:14 AM 32.4 °F 26.9 °F 28.4 °F 85% 30.16 in 10.0 mi NW 5.8 mph - N/A   Clear
8:35 AM 32.7 °F 25.0 °F 28.4 °F 84% 30.17 in 10.0 mi NW 9.2 mph - N/A   Clear
8:55 AM 32.9 °F 25.9 °F 28.8 °F 85% 30.18 in 10.0 mi WNW 8.1 mph - N/A   Clear
9:14 AM 33.4 °F 25.9 °F 28.9 °F 84% 30.18 in 10.0 mi NW 9.2 mph - N/A   Clear
9:35 AM 34.5 °F 28.6 °F 29.1 °F 81% 30.18 in 10.0 mi NNW 6.9 mph - N/A   Clear
9:54 AM 35.4 °F 29.0 °F 29.1 °F 78% 30.18 in 10.0 mi North 8.1 mph - N/A   Clear
10:15 AM 36.5 °F 29.7 °F 29.3 °F 75% 30.18 in 10.0 mi North 9.2 mph - N/A   Clear
10:35 AM 37.8 °F 31.3 °F 29.5 °F 72% 30.19 in 10.0 mi NNW 9.2 mph - N/A   Clear
10:54 AM 38.8 °F 33.8 °F 29.3 °F 69% 30.19 in 10.0 mi NNW 6.9 mph - N/A   Clear
11:15 AM 40.1 °F 36.9 °F 29.5 °F 66% 30.19 in 10.0 mi NNW 4.6 mph - N/A   Clear
11:34 AM 41.4 °F 36.2 °F 28.9 °F 61% 30.19 in 10.0 mi NW 8.1 mph - N/A   Scattered Clouds
11:55 AM 40.5 °F 35.8 °F 27.7 °F 60% 30.19 in 10.0 mi NW 6.9 mph - N/A   Mostly Cloudy
12:15 PM 42.8 °F 38.6 °F 27.7 °F 55% 30.20 in 10.0 mi North 6.9 mph - N/A   Overcast
12:35 PM 41.0 °F 36.4 °F 27.1 °F 58% 30.19 in 10.0 mi North 6.9 mph - N/A   Mostly Cloudy
12:54 PM 43.2 °F 39.0 °F 27.9 °F 55% 30.19 in 10.0 mi NNW 6.9 mph - N/A   Mostly Cloudy
1:15 PM 42.8 °F 38.6 °F 28.8 °F 58% 30.19 in 10.0 mi North 6.9 mph - N/A   Overcast
1:35 PM 41.5 °F 39.6 °F 28.2 °F 59% 30.18 in 10.0 mi West 3.5 mph - N/A   Overcast
1:54 PM 42.6 °F 39.0 °F 28.8 °F 58% 30.18 in 10.0 mi North 5.8 mph - N/A   Overcast
2:15 PM 42.4 °F 38.1 °F 28.4 °F 58% 30.18 in 10.0 mi NNW 6.9 mph - N/A   Overcast
2:34 PM 42.6 °F 39.9 °F 28.8 °F 58% 30.18 in 10.0 mi North 4.6 mph - N/A   Overcast
2:55 PM 42.1 °F 37.7 °F 28.6 °F 59% 30.17 in 10.0 mi NNW 6.9 mph - N/A   Overcast
3:14 PM 42.1 °F 38.4 °F 28.6 °F 59% 30.17 in 10.0 mi NNW 5.8 mph - N/A   Overcast
3:35 PM 42.3 °F 36.3 °F 27.7 °F 56% 30.18 in 10.0 mi NW 10.4 mph - N/A   Overcast
3:55 PM 41.9 °F 39.0 °F 28.2 °F 58% 30.17 in 10.0 mi North 4.6 mph - N/A   Overcast
4:14 PM 42.1 °F 39.2 °F 28.2 °F 58% 30.17 in 10.0 mi North 4.6 mph - N/A   Overcast
4:35 PM 41.5 °F 36.4 °F 27.7 °F 58% 30.17 in 10.0 mi NW 8.1 mph - N/A   Overcast
4:55 PM 41.4 °F 39.4 °F 28.0 °F 59% 30.17 in 10.0 mi NNE 3.5 mph - N/A   Overcast
5:14 PM 41.4 °F 36.8 °F 27.9 °F 59% 30.17 in 10.0 mi WNW 6.9 mph - N/A   Overcast
5:35 PM 41.0 °F 35.2 °F 27.7 °F 59% 30.18 in 10.0 mi NW 9.2 mph - N/A   Overcast
5:54 PM 40.5 °F 35.8 °F 27.5 °F 60% 30.18 in 10.0 mi NW 6.9 mph - N/A   Overcast
6:15 PM 40.3 °F 36.3 °F 27.5 °F 60% 30.18 in 10.0 mi NW 5.8 mph - N/A   Overcast
6:35 PM 39.7 °F 34.3 °F 28.0 °F 63% 30.18 in 10.0 mi North 8.1 mph - N/A   Overcast
6:54 PM 39.6 °F 34.0 °F 28.2 °F 64% 30.18 in 10.0 mi North 8.1 mph - N/A   Overcast
7:15 PM 39.2 °F 33.6 °F 28.0 °F 64% 30.19 in 10.0 mi North 8.1 mph - N/A   Overcast
7:35 PM 38.5 °F 36.1 °F 27.3 °F 64% 30.19 in 10.0 mi NNE 3.5 mph - N/A   Overcast
7:54 PM 38.5 °F 33.4 °F 26.8 °F 63% 30.19 in 10.0 mi North 6.9 mph - N/A   Overcast
8:15 PM 38.3 °F 33.2 °F 26.6 °F 63% 30.20 in 10.0 mi NNW 6.9 mph - N/A   Mostly Cloudy
8:34 PM 37.4 °F 33.8 °F 26.6 °F 65% 30.19 in 10.0 mi North 4.6 mph - N/A   Scattered Clouds
8:55 PM 36.9 °F 30.7 °F 27.1 °F 68% 30.19 in 10.0 mi North 8.1 mph - N/A   Clear
9:15 PM 36.0 °F 30.3 °F 27.3 °F 71% 30.19 in 10.0 mi NNW 6.9 mph - N/A   Scattered Clouds
9:34 PM 35.8 °F 31.9 °F 27.5 °F 72% 30.19 in 10.0 mi North 4.6 mph - N/A   Mostly Cloudy
9:55 PM 35.6 °F 31.7 °F 27.7 °F 73% 30.19 in 10.0 mi North 4.6 mph - N/A   Overcast
10:14 PM 35.2 °F 29.5 °F 27.5 °F 73% 30.19 in 10.0 mi North 6.9 mph - N/A   Mostly Cloudy
10:34 PM 35.1 °F 29.3 °F 27.5 °F 74% 30.20 in 10.0 mi North 6.9 mph - N/A   Overcast
10:55 PM 35.6 °F 30.7 °F 26.8 °F 70% 30.20 in 10.0 mi North 5.8 mph - N/A   Overcast
11:14 PM 35.6 °F 30.7 °F 26.4 °F 69% 30.21 in 10.0 mi NNW 5.8 mph - N/A   Overcast
11:35 PM 36.0 °F 32.1 °F 25.7 °F 66% 30.21 in 10.0 mi NNW 4.6 mph - N/A   Overcast
11:54 PM 36.0 °F 32.1 °F 25.3 °F 65% 30.21 in 10.0 mi North 4.6 mph - N/A   Overcast